MEASAT 3D

Last updated on Sun Mar 15 2026 00:02:57 GMT+0000 (Coordinated Universal Time)

1 52904U 22067B 26073.49906106 -.00000242 00000+0 00000+0 0 9997 2 52904 0.0484 327.9270 0003054 12.2677 103.0958 1.00271736 13697
UTC large
Height (km)
Speed (km/s)
/
Latitude / Longitude
Inclination (degrees)
Orbital Period (minutes)
Azimuth
Elevation
Range (km)
Doppler Factor

Next 0 passes for location: London (51.5072 / 0.1276)

Sorry there are no passes over London.